Location: Tierra del Sol
(32.6128°N, 116.3319°W)
Time: 08:16:05
(UTC-07:00)

Amateur Radio Satellites - All Passes

Search period start: 29 September 2016 07:46
Search period end: 30 September 2016 07:46
Location: Tierra del Sol, 32.6128°N, 116.3319°W

Satellite Date Start Highest point End Downlink Frequencies (MHz)
Time Altitude Azimuth
GONETS M04 29 Sep 07:47:05 07:54:54 37° 87° (E) 08:02:44
DOVE 4 29 Sep 07:49:30 07:53:33 53° 284° (WNW) 07:57:35 437.250
CUTE-I 29 Sep 07:49:32 07:54:23 36° 289° (WNW) 07:59:14 437.470
Cubesat XI-IV 29 Sep 07:49:52 07:54:44 36° 289° (WNW) 07:59:35 437.490
PRISM 29 Sep 07:51:01 07:52:44 12° 67° (ENE) 07:54:27 437.425
O/OREOS (USA 219) 29 Sep 07:52:32 07:56:02 22° 297° (WNW) 07:59:35 437.305
COMPASS 1 29 Sep 08:08:30 08:11:01 15° 94° (E) 08:13:31 437.405
CUBEBUG 2 29 Sep 08:11:59 08:14:09 13° 94° (E) 08:16:20 437.445
RS-15 29 Sep 08:16:28 08:20:05 12° 264° (W) 08:23:41 29.354- 29.394
Cosmos 2499 29 Sep 08:26:35 08:33:33 55° 92° (E) 08:40:23 435.465 / 435.565
UWE-3 29 Sep 08:26:58 08:28:59 13° 94° (E) 08:31:01 435.000/436.395/437.385
SEEDS 29 Sep 08:38:34 08:42:47 58° 100° (E) 08:46:57 437.485
CUTE 1.7 + AOD 2 29 Sep 08:39:58 08:44:17 88° 282° (WNW) 08:48:34 437.475
CANX-2 29 Sep 08:41:34 08:45:51 71° 284° (WNW) 08:50:07 2200.000
NOAA 18 29 Sep 08:45:10 08:48:12 15° 296° (WNW) 08:51:14 137.9125
Oscar 11 29 Sep 08:47:56 08:49:56 13° 93° (E) 08:51:55 145.826/435.025
STRAND 1 29 Sep 08:48:07 08:50:09 12° 267° (W) 08:52:12 437.568
CINEMA 3 29 Sep 08:50:02 08:54:02 45° 285° (WNW) 08:58:10 145.822/145.860
ZACube-1 29 Sep 08:52:11 08:54:53 16° 94° (E) 08:57:38 437.345
AAUSAT CUBESAT 2 29 Sep 08:56:41 09:00:44 47° 99° (E) 09:04:45 437.432
DANDE 29 Sep 08:59:46 09:03:03 13° 281° (W) 09:06:13 436.750
HO-68 29 Sep 09:01:33 09:08:41 75° 288° (WNW) 09:15:49 435.675
PHONESAT 2.4 29 Sep 09:01:58 09:04:40 35° 147° (SSE) 09:07:23 2401.200-2431.200
ANTELSAT 29 Sep 09:20:07 09:22:37 15° 68° (ENE) 09:25:06 437.575/2403.000
BEESAT 3 29 Sep 09:21:52 09:25:21 29° 57° (ENE) 09:28:49 437.485
PRISM 29 Sep 09:23:39 09:27:36 43° 260° (W) 09:31:35 437.425
TIGRISAT 29 Sep 09:39:08 09:42:34 24° 71° (ENE) 09:45:59 435.000
COMPASS 1 29 Sep 09:42:51 09:46:36 32° 287° (WNW) 09:50:21 437.405
GONETS M04 29 Sep 09:43:20 09:51:28 41° 283° (WNW) 09:59:42
FUNcube-1 29 Sep 09:43:55 09:48:16 64° 101° (E) 09:52:41 145.935
CUBEBUG 2 29 Sep 09:46:47 09:50:51 40° 286° (WNW) 09:55:02 437.445
UWE-3 29 Sep 10:01:26 10:05:33 43° 286° (WNW) 10:09:47 435.000/436.395/437.385
DELFI C3 29 Sep 10:03:03 10:06:49 38° 98° (E) 10:10:32 145.870
UNISAT 6 29 Sep 10:19:20 10:23:37 84° 77° (ENE) 10:27:53 437.425
BEESAT 2 29 Sep 10:20:24 10:24:25 67° 62° (ENE) 10:28:23 435.950
Cosmos 2499 29 Sep 10:21:58 10:26:58 20° 287° (WNW) 10:31:56 435.465 / 435.565
Oscar 11 29 Sep 10:22:05 10:26:11 41° 286° (WNW) 10:30:17 145.826/435.025
ZACube-1 29 Sep 10:27:14 10:31:11 35° 287° (WNW) 10:35:15 437.345
HUMSAT D 29 Sep 10:32:57 10:37:02 43° 99° (E) 10:41:07 437.325/437.525
QB50P2 29 Sep 10:33:09 10:35:11 13° 68° (ENE) 10:37:12 145.880/145.840
AAUSAT CUBESAT 2 29 Sep 10:34:32 10:35:44 11° 293° (WNW) 10:36:55 437.432
POLYITAN 1 29 Sep 10:35:22 10:37:23 13° 68° (ENE) 10:39:23 437.675
JAS-2 29 Sep 10:36:47 10:41:08 19° 61° (ENE) 10:45:47 435.910
PHONESAT 2.4 29 Sep 10:38:05 10:40:46 32° 342° (NNW) 10:43:27 2401.200-2431.200
HO-68 29 Sep 10:53:23 10:55:12 11° 303° (WNW) 10:57:00 435.675
ANTELSAT 29 Sep 10:55:07 10:59:01 34° 262° (W) 11:02:54 437.575/2403.000
BEESAT 3 29 Sep 11:00:06 11:02:46 17° 250° (WSW) 11:05:24 437.485
DUCHIFAT 1 29 Sep 11:09:03 11:12:39 29° 72° (ENE) 11:16:16 145.980
QB50P1 29 Sep 11:12:46 11:16:40 37° 74° (ENE) 11:20:33 145.935-145.965
TIGRISAT 29 Sep 11:15:55 11:19:10 21° 264° (W) 11:22:24 435.000
AIST 2 29 Sep 11:22:33 11:22:55 10° 48° (NE) 11:23:19 435.215
POPSAT HIP 1 29 Sep 11:26:14 11:30:20 55° 75° (ENE) 11:34:26 437.405
CUBEBUG 1 29 Sep 11:33:10 11:35:58 17° 95° (E) 11:38:45 437.445
VELOX 1 29 Sep 11:34:18 11:36:11 13° 94° (E) 11:38:04 145.980
DELFI C3 29 Sep 11:39:35 11:41:14 12° 292° (WNW) 11:42:53 145.870
ESTCUBE 1 29 Sep 11:40:25 11:44:36 35° 98° (E) 11:48:43 437.505/2401.250
NANOSAT C BR1 29 Sep 11:41:13 11:45:24 83° 77° (ENE) 11:49:36 145.865
SPROUT 29 Sep 12:05:53 12:08:30 16° 94° (E) 12:11:08 437.525
QB50P2 29 Sep 12:06:39 12:10:35 39° 261° (W) 12:14:33 145.880/145.840
POLYITAN 1 29 Sep 12:08:51 12:12:47 39° 261° (W) 12:16:44 437.675
HUMSAT D 29 Sep 12:10:19 12:12:13 13° 292° (WNW) 12:14:08 437.325/437.525
PHONESAT 2.4 29 Sep 12:15:20 12:17:23 17° 358° (N) 12:19:25 2401.200-2431.200
JAS-2 29 Sep 12:18:59 12:25:15 67° 259° (W) 12:32:24 435.910
UKube-1 29 Sep 12:23:01 12:26:21 22° 96° (E) 12:29:40 .
AISAT 29 Sep 12:25:03 12:29:22 58° 101° (E) 12:33:39 437.250
AUBIESAT-1 29 Sep 12:32:02 12:34:34 20° 102° (ESE) 12:37:08 437.475
50 SAT 29 Sep 12:35:31 12:39:11 79° 102° (ESE) 12:42:48 437.505
Oscar 19 29 Sep 12:37:54 12:42:05 25° 69° (ENE) 12:46:17 437.125/150
BUGSAT 1 29 Sep 12:39:08 12:43:09 52° 260° (W) 12:47:08 437.445
PCSat 29 Sep 12:44:28 12:48:40 22° 55° (NE) 12:52:49 145.827
DUCHIFAT 1 29 Sep 12:45:34 12:48:19 17° 265° (W) 12:51:05 145.980
QB50P1 29 Sep 12:50:31 12:52:32 13° 266° (W) 12:54:32 145.935-145.965
DX 1 29 Sep 12:54:16 12:58:36 74° 102° (ESE) 13:02:55 434.975-435.025
AIST 2 29 Sep 12:57:39 13:01:50 70° 244° (WSW) 13:05:59 435.215
CUBEBUG 1 29 Sep 13:08:26 13:12:16 31° 288° (WNW) 13:16:04 437.445
VELOX 1 29 Sep 13:08:38 13:12:48 43° 286° (WNW) 13:16:56 145.980
M-CUBED/EXP-1 PRIME 29 Sep 13:10:23 13:13:38 75° 288° (WNW) 13:16:57 437.505
ESTCUBE 1 29 Sep 13:18:09 13:21:04 17° 292° (WNW) 13:23:59 437.505/2401.250
TISAT 1 29 Sep 13:19:18 13:22:25 20° 96° (E) 13:25:32 437.305
Cosmos 2491 29 Sep 13:32:06 13:38:30 23° 83° (E) 13:44:56 435.465 / 435.565
ITAMSAT 1 29 Sep 13:38:20 13:39:31 11° 63° (ENE) 13:40:43 435.822/435.867
YUBILEINY 29 Sep 13:39:39 13:47:52 45° 78° (ENE) 13:56:04 435.215
SPROUT 29 Sep 13:40:41 13:44:28 32° 287° (WNW) 13:48:15 437.525
Gurwin Techsat 1B 29 Sep 13:49:00 13:54:13 61° 74° (ENE) 13:59:27 435.225
PHONESAT 2.4 29 Sep 13:51:31 13:54:03 25° 15° (NNE) 13:56:35 2401.200-2431.200
UKube-1 29 Sep 13:58:47 14:02:17 25° 290° (WNW) 14:05:45 .
AISAT 29 Sep 14:04:50 14:05:16 10° 295° (WNW) 14:05:43 437.250
AUBIESAT-1 29 Sep 14:06:54 14:08:53 15° 294° (WNW) 14:10:53 437.475
Oscar 19 29 Sep 14:16:38 14:21:12 31° 262° (W) 14:25:48 437.125/150
PCSat 29 Sep 14:27:06 14:32:10 42° 250° (WSW) 14:37:14 145.827
ITUPSAT 1 29 Sep 14:30:23 14:34:16 24° 96° (E) 14:38:08 437.325
SWISSCUBE 29 Sep 14:41:58 14:46:26 37° 99° (E) 14:50:52 437.505
SO-50 29 Sep 14:45:46 14:50:36 76° 298° (WNW) 14:55:25 436.795
AO-7 29 Sep 14:49:10 14:56:52 44° 65° (ENE) 15:04:33 29.400- 29.500
TISAT 1 29 Sep 14:54:35 14:57:58 24° 289° (WNW) 15:01:20 437.305
BEESAT 29 Sep 14:54:36 14:59:13 46° 100° (E) 15:03:48 436.000
ITAMSAT 1 29 Sep 15:13:07 15:18:16 75° 258° (WSW) 15:23:28 435.822/435.867
Cosmos 2504 29 Sep 15:16:53 15:24:28 76° 83° (E) 15:32:37 435.465 / 435.565
Cosmos 2491 29 Sep 15:25:54 15:34:32 62° 279° (W) 15:43:17 435.465 / 435.565
PHONESAT 2.4 29 Sep 15:27:22 15:30:17 59° 209° (SSW) 15:33:11 2401.200-2431.200
Gurwin Techsat 1B 29 Sep 15:32:11 15:34:28 13° 267° (W) 15:36:47 435.225
YUBILEINY 29 Sep 15:36:56 15:44:17 32° 274° (W) 15:51:39 435.215
AIST 1 29 Sep 15:57:16 16:01:10 34° 80° (E) 16:05:02
MOZHAYETS 4 29 Sep 16:04:07 16:08:32 43° 99° (E) 16:12:57
ITUPSAT 1 29 Sep 16:07:56 16:12:00 28° 290° (WNW) 16:16:04 437.325
KKS-1 29 Sep 16:15:43 16:19:43 33° 98° (E) 16:23:43 437.445
SWISSCUBE 29 Sep 16:20:38 16:23:53 18° 292° (WNW) 16:27:08 437.505
O/OREOS (USA 219) 29 Sep 16:27:08 16:31:01 26° 64° (ENE) 16:34:52 437.305
HORYU 2 29 Sep 16:29:43 16:33:20 26° 71° (ENE) 16:36:58 437.375
BEESAT 29 Sep 16:33:52 16:36:34 15° 294° (WNW) 16:39:15 436.000
AO-7 29 Sep 16:42:10 16:49:35 36° 260° (W) 16:57:02 29.400- 29.500
STARS 29 Sep 16:44:02 16:47:57 32° 98° (E) 16:51:51 437.465
GOMX 1 29 Sep 17:02:34 17:05:41 16° 68° (ENE) 17:08:44 467.674
NOAA 15 29 Sep 17:05:42 17:09:15 19° 66° (ENE) 17:12:48 137.62
Cosmos 2504 29 Sep 17:12:54 17:17:02 16° 277° (W) 17:21:18 435.465 / 435.565
BRITE-PL 29 Sep 17:20:27 17:26:02 59° 75° (ENE) 17:31:32 437.365/2234.400
CUTE-I 29 Sep 17:27:46 17:31:58 24° 68° (ENE) 17:36:10 437.470
Cubesat XI-IV 29 Sep 17:28:16 17:32:28 24° 68° (ENE) 17:36:41 437.490
CUBESAT XI-V 29 Sep 17:29:09 17:33:38 44° 99° (E) 17:38:04 437.345
AIST 1 29 Sep 17:36:16 17:38:22 14° 273° (W) 17:40:28
MOZHAYETS 4 29 Sep 17:42:39 17:45:18 15° 292° (WNW) 17:47:56
LilacSat-2 29 Sep 17:52:46 17:56:13 35° 74° (ENE) 17:59:40 437.200
KKS-1 29 Sep 17:53:05 17:55:59 17° 292° (WNW) 17:58:54 437.445
JUGNU 29 Sep 18:03:00 18:05:17 12° 163° (SSE) 18:07:34 437.505
RS-15 29 Sep 18:04:48 18:13:49 28° 102° (ESE) 18:23:07 29.354- 29.394
GONETS M04 29 Sep 18:05:37 18:09:11 13° 66° (ENE) 18:12:43
HORYU 2 29 Sep 18:06:23 18:09:48 22° 264° (W) 18:13:13 437.375
O/OREOS (USA 219) 29 Sep 18:06:40 18:10:14 23° 259° (WSW) 18:13:47 437.305
ISS 29 Sep 18:19:00 18:21:36 22° 129° (SE) 18:24:14 145.825
STARS 29 Sep 18:21:07 18:24:01 18° 291° (WNW) 18:26:56 437.465
Cosmos 2499 29 Sep 18:24:11 18:27:54 14° 70° (ENE) 18:31:42 435.465 / 435.565
NOAA 18 29 Sep 18:24:28 18:29:55 73° 75° (ENE) 18:35:22 137.9125
CUSAT 1 29 Sep 18:24:41 18:30:21 43° 89° (E) 18:37:17 437.405
DANDE 29 Sep 18:36:01 18:39:00 15° 80° (E) 18:42:24 436.750
GOMX 1 29 Sep 18:38:00 18:43:19 54° 260° (W) 18:48:25 467.674
NOAA 15 29 Sep 18:43:33 18:48:36 46° 260° (W) 18:53:42 137.62
DOVE 4 29 Sep 18:49:18 18:54:23 85° 79° (ENE) 18:59:11 437.250
BRITE-PL 29 Sep 19:01:24 19:04:42 16° 268° (W) 19:08:00 437.365/2234.400
CUTE-I 29 Sep 19:07:03 19:11:47 33° 262° (W) 19:16:34 437.470
Cubesat XI-IV 29 Sep 19:07:33 19:12:19 33° 262° (W) 19:17:06 437.490
CUBESAT XI-V 29 Sep 19:08:01 19:10:34 15° 293° (WNW) 19:13:08 437.345
STRAND 1 29 Sep 19:21:09 19:25:37 29° 97° (E) 19:30:03 437.568
HO-68 29 Sep 19:24:49 19:31:42 52° 70° (ENE) 19:38:35 435.675
SEEDS 29 Sep 19:26:20 19:29:35 22° 71° (ENE) 19:32:52 437.485
CUTE 1.7 + AOD 2 29 Sep 19:28:08 19:31:57 34° 73° (ENE) 19:35:49 437.475
CANX-2 29 Sep 19:29:37 19:33:37 42° 74° (ENE) 19:37:39 2200.000
LilacSat-2 29 Sep 19:29:40 19:30:36 11° 267° (W) 19:31:33 437.200
AAUSAT CUBESAT 2 29 Sep 19:43:18 19:46:07 18° 70° (ENE) 19:48:57 437.432
CINEMA 3 29 Sep 19:46:39 19:51:10 90° 139° (SE) 19:55:31 145.822/145.860
JUGNU 29 Sep 19:49:18 19:53:39 21° 172° (S) 19:57:59 437.505
ISS 29 Sep 19:55:17 19:58:00 24° 323° (NW) 20:00:44 145.825
GONETS M04 29 Sep 19:58:27 20:07:17 83° 84° (E) 20:16:01
CUSAT 1 29 Sep 20:07:16 20:12:34 28° 290° (WNW) 20:18:47 437.405
NOAA 18 29 Sep 20:09:47 20:10:59 11° 268° (W) 20:12:11 137.9125
RS-15 29 Sep 20:13:39 20:25:05 70° 301° (WNW) 20:37:15 29.354- 29.394
Cosmos 2499 29 Sep 20:13:57 20:21:43 88° 265° (W) 20:30:06 435.465 / 435.565
DANDE 29 Sep 20:15:50 20:20:41 53° 283° (WNW) 20:27:09 436.750
AO-85 29 Sep 20:26:13 20:31:31 84° 298° (WNW) 20:36:32 145.980
COMPASS 1 29 Sep 20:28:11 20:32:21 88° 77° (ENE) 20:36:33 437.405
FUNcube-1 29 Sep 20:35:36 20:39:02 26° 72° (ENE) 20:42:27 145.935
CUBEBUG 2 29 Sep 20:40:05 20:44:18 88° 258° (WSW) 20:48:28 437.445
DELFI C3 29 Sep 20:46:09 20:47:55 13° 68° (ENE) 20:49:42 145.870
SRMSAT 29 Sep 20:51:01 20:54:05 14° 165° (SSE) 20:57:09 437.500
UWE-3 29 Sep 20:53:38 20:57:49 84° 75° (ENE) 21:01:58 435.000/436.395/437.385
STRAND 1 29 Sep 21:00:22 21:04:37 27° 291° (WNW) 21:08:53 437.568
SEEDS 29 Sep 21:01:48 21:05:08 23° 264° (W) 21:08:30 437.485
CUTE 1.7 + AOD 2 29 Sep 21:05:30 21:07:52 15° 267° (W) 21:10:14 437.475
CANX-2 29 Sep 21:08:05 21:09:38 12° 267° (W) 21:11:10 2200.000
PRISM 29 Sep 21:09:39 21:13:24 33° 98° (E) 21:17:06 437.425
Oscar 11 29 Sep 21:11:42 21:15:59 81° 79° (E) 21:20:19 145.826/435.025
HO-68 29 Sep 21:14:01 21:19:35 24° 264° (W) 21:25:11 435.675
AAUSAT CUBESAT 2 29 Sep 21:17:46 21:21:20 28° 263° (W) 21:24:57 437.432
ZACube-1 29 Sep 21:18:05 21:22:13 80° 259° (W) 21:26:22 437.345
HUMSAT D 29 Sep 21:20:58 21:23:32 16° 69° (ENE) 21:26:07 437.325/437.525
JUGNU 29 Sep 21:37:29 21:42:05 23° 183° (S) 21:46:39 437.505
GONETS M04 29 Sep 21:58:13 22:02:53 16° 280° (W) 22:07:35
Cosmos 2499 29 Sep 22:11:00 22:13:50 12° 279° (W) 22:16:44 435.465 / 435.565
AO-85 29 Sep 22:11:38 22:12:33 10° 313° (NW) 22:13:29 145.980
FUNcube-1 29 Sep 22:12:20 22:15:14 18° 265° (W) 22:18:06 145.935
UNISAT 6 29 Sep 22:15:41 22:19:21 25° 97° (E) 22:23:05 437.425
DELFI C3 29 Sep 22:18:39 22:22:21 37° 262° (W) 22:26:06 145.870
RS-15 29 Sep 22:32:12 22:40:20 20° 327° (NNW) 22:48:43 29.354- 29.394
ESTCUBE 1 29 Sep 22:36:10 22:39:26 20° 69° (ENE) 22:42:42 437.505/2401.250
SRMSAT 29 Sep 22:38:09 22:42:36 22° 175° (S) 22:47:03 437.500
PRISM 29 Sep 22:46:02 22:48:21 15° 292° (WNW) 22:50:41 437.425
ANTELSAT 29 Sep 22:50:20 22:54:47 65° 101° (E) 22:59:18 437.575/2403.000
HUMSAT D 29 Sep 22:55:19 22:58:52 29° 263° (W) 23:02:28 437.325/437.525
50 SAT 29 Sep 23:08:46 23:11:05 16° 70° (ENE) 23:13:23 437.505
BEESAT 3 29 Sep 23:09:24 23:11:27 14° 109° (ESE) 23:13:32 437.485
TIGRISAT 29 Sep 23:10:13 23:14:39 78° 285° (WNW) 23:19:12 435.000
AUBIESAT-1 29 Sep 23:14:21 23:16:45 15° 66° (ENE) 23:19:02 437.475
UKube-1 29 Sep 23:15:19 23:16:30 11° 66° (ENE) 23:17:42 .
POPSAT HIP 1 29 Sep 23:17:15 23:19:08 13° 94° (E) 23:21:00 437.405
AISAT 29 Sep 23:18:05 23:21:55 29° 71° (ENE) 23:25:45 437.250
SO-50 29 Sep 23:22:08 23:26:01 27° 54° (NE) 23:29:49 436.795
JUGNU 29 Sep 23:26:48 23:30:28 17° 193° (SSW) 23:34:07 437.505
NANOSAT C BR1 29 Sep 23:30:59 23:33:56 18° 95° (E) 23:36:51 145.865
JAS-2 29 Sep 23:34:18 23:40:36 27° 93° (E) 23:46:31 435.910
DX 1 29 Sep 23:45:20 23:49:18 34° 72° (ENE) 23:53:15 434.975-435.025
M-CUBED/EXP-1 PRIME 29 Sep 23:51:54 23:56:02 61° 72° (ENE) 23:59:52 437.505
UNISAT 6 29 Sep 23:52:22 23:55:55 24° 289° (WNW) 23:59:32 437.425
QB50P2 29 Sep 23:55:43 23:59:45 43° 99° (E) 00:03:48 145.880/145.840
POLYITAN 1 29 Sep 23:57:54 00:01:57 43° 99° (E) 00:05:59 437.675
CUBEBUG 1 29 Sep 23:58:57 00:03:21 71° 258° (WSW) 00:07:46 437.445
VELOX 1 30 Sep 00:00:45 00:05:12 90° 237° (WSW) 00:09:40 145.980
BEESAT 2 30 Sep 00:08:01 00:11:35 34° 113° (ESE) 00:15:11 435.950
ESTCUBE 1 30 Sep 00:12:00 00:15:59 30° 263° (W) 00:20:00 437.505/2401.250
BUGSAT 1 30 Sep 00:25:32 00:29:03 28° 98° (E) 00:32:32 437.445
SRMSAT 30 Sep 00:26:42 00:31:10 22° 185° (S) 00:35:38 437.500
SPROUT 30 Sep 00:28:52 00:33:08 80° 258° (WSW) 00:37:24 437.525
DUCHIFAT 1 30 Sep 00:32:20 00:36:32 79° 283° (WNW) 00:40:44 145.980
QB50P1 30 Sep 00:37:09 00:41:18 58° 284° (WNW) 00:45:26 145.935-145.965
50 SAT 30 Sep 00:41:27 00:44:21 22° 263° (W) 00:47:17 437.505
BEESAT 3 30 Sep 00:45:13 00:48:46 33° 303° (WNW) 00:52:21 437.485
AUBIESAT-1 30 Sep 00:47:18 00:50:58 31° 257° (WSW) 00:54:26 437.475
UKube-1 30 Sep 00:47:49 00:52:02 52° 259° (W) 00:56:16 .
POPSAT HIP 1 30 Sep 00:51:05 00:55:02 39° 286° (WNW) 00:58:58 437.405
AISAT 30 Sep 00:55:07 00:58:20 20° 264° (W) 01:01:35 437.250
Oscar 19 30 Sep 00:55:41 00:57:34 12° 92° (E) 00:59:27 437.125/150
RS-15 30 Sep 00:58:00 01:00:26 11° 5° (N) 01:02:53 29.354- 29.394
SO-50 30 Sep 01:02:43 01:06:20 24° 249° (WSW) 01:09:53 436.795
NANOSAT C BR1 30 Sep 01:06:02 01:09:36 27° 288° (WNW) 01:13:10 145.865
JAS-2 30 Sep 01:18:17 01:25:49 53° 289° (WNW) 01:32:51 435.910
DX 1 30 Sep 01:22:51 01:25:31 16° 265° (W) 01:28:12 434.975-435.025
QB50P2 30 Sep 01:33:24 01:35:09 12° 292° (WNW) 01:36:53 145.880/145.840
ITUPSAT 1 30 Sep 01:33:31 01:36:38 18° 67° (ENE) 01:39:45 437.325
POLYITAN 1 30 Sep 01:35:34 01:37:19 12° 293° (WNW) 01:39:03 437.675
TISAT 1 30 Sep 01:40:41 01:44:49 61° 259° (W) 01:48:58 437.305
Cosmos 2491 30 Sep 01:41:56 01:50:35 55° 80° (E) 01:59:07 435.465 / 435.565
SWISSCUBE 30 Sep 01:44:20 01:48:15 26° 70° (ENE) 01:52:12 437.505
BEESAT 2 30 Sep 01:47:00 01:49:28 16° 308° (NW) 01:51:58 435.950
BEESAT 30 Sep 01:56:44 02:00:55 32° 71° (ENE) 02:05:07 436.000
BUGSAT 1 30 Sep 02:01:36 02:04:10 17° 291° (WNW) 02:06:43 437.445
Gurwin Techsat 1B 30 Sep 02:10:06 02:14:56 35° 98° (E) 02:19:44 435.225
SRMSAT 30 Sep 02:16:35 02:19:42 15° 194° (SSW) 02:22:50 437.500
ISS 30 Sep 02:26:03 02:29:10 39° 41° (NE) 02:32:17 145.825
Oscar 19 30 Sep 02:32:09 02:37:13 61° 286° (WNW) 02:42:15 437.125/150
YUBILEINY 30 Sep 02:34:16 02:42:51 61° 91° (E) 02:51:24 435.215
AIST 2 30 Sep 02:50:34 02:54:37 74° 115° (ESE) 02:58:44 435.215
AO-7 30 Sep 02:57:42 03:02:36 17° 94° (E) 03:07:29 29.400- 29.500
MOZHAYETS 4 30 Sep 03:01:59 03:05:38 24° 70° (ENE) 03:09:18
ITUPSAT 1 30 Sep 03:09:41 03:14:07 39° 261° (W) 03:18:34 437.325
RS-15 30 Sep 03:09:45 03:19:41 27° 40° (NE) 03:29:24 29.354- 29.394
KKS-1 30 Sep 03:10:09 03:13:12 18° 69° (ENE) 03:16:16 437.445
PCSat 30 Sep 03:20:42 03:25:51 48° 110° (ESE) 03:31:03 145.827
SWISSCUBE 30 Sep 03:22:02 03:25:55 25° 263° (W) 03:29:50 437.505
ITAMSAT 1 30 Sep 03:30:32 03:35:41 57° 101° (E) 03:40:48 435.822/435.867
BEESAT 30 Sep 03:35:10 03:38:40 20° 264° (W) 03:42:13 436.000
STARS 30 Sep 03:37:13 03:40:01 17° 68° (ENE) 03:42:51 437.465
Cosmos 2491 30 Sep 03:39:53 03:46:45 26° 276° (W) 03:53:38 435.465 / 435.565
Cosmos 2504 30 Sep 03:50:08 03:57:33 73° 94° (E) 04:04:42 435.465 / 435.565
Gurwin Techsat 1B 30 Sep 03:50:28 03:54:38 24° 292° (WNW) 03:58:46 435.225
ISS 30 Sep 04:03:39 04:05:22 14° 234° (SW) 04:07:05 145.825
AIST 1 30 Sep 04:21:53 04:25:32 26° 90° (E) 04:29:10
CUBESAT XI-V 30 Sep 04:28:11 04:32:05 26° 71° (ENE) 04:36:00 437.345
YUBILEINY 30 Sep 04:33:20 04:40:05 24° 288° (WNW) 04:46:50 435.215
MOZHAYETS 4 30 Sep 04:38:54 04:42:39 25° 264° (W) 04:46:25
KKS-1 30 Sep 04:45:31 04:49:30 32° 262° (W) 04:53:28 437.445
AO-7 30 Sep 04:47:42 04:56:00 81° 289° (WNW) 05:04:18 29.400- 29.500
AO-85 30 Sep 05:03:38 05:06:43 20° 53° (NE) 05:09:41 145.980
CUSAT 1 30 Sep 05:05:16 05:11:09 26° 69° (ENE) 05:16:07 437.405
PCSat 30 Sep 05:05:33 05:09:28 20° 306° (NW) 05:13:25 145.827
ITAMSAT 1 30 Sep 05:11:48 05:14:37 15° 295° (WNW) 05:17:25 435.822/435.867
STARS 30 Sep 05:12:06 05:16:05 34° 262° (W) 05:20:03 437.465
DANDE 30 Sep 05:18:13 05:23:05 17° 65° (ENE) 05:27:40 436.750
RS-15 30 Sep 05:21:30 05:33:57 90° 232° (SW) 05:45:57 29.354- 29.394
BRITE-PL 30 Sep 05:31:39 05:35:14 23° 94° (E) 05:38:38 437.365/2234.400
Cosmos 2504 30 Sep 05:47:30 05:51:29 15° 289° (WNW) 05:55:26 435.465 / 435.565
CUTE-I 30 Sep 05:50:22 05:52:59 14° 93° (E) 05:55:36 437.470
Cubesat XI-IV 30 Sep 05:51:03 05:53:41 14° 93° (E) 05:56:17 437.490
AIST 1 30 Sep 05:59:53 06:03:03 19° 283° (WNW) 06:06:13
HORYU 2 30 Sep 06:00:26 06:04:54 84° 286° (WNW) 06:09:22 437.375
CUBESAT XI-V 30 Sep 06:05:33 06:09:20 24° 264° (W) 06:13:10 437.345
STRAND 1 30 Sep 06:32:53 06:37:04 26° 69° (ENE) 06:41:16 437.568
O/OREOS (USA 219) 30 Sep 06:34:04 06:38:35 72° 107° (ESE) 06:43:09 437.305
AO-7 30 Sep 06:43:25 06:47:29 15° 306° (NW) 06:51:33 29.400- 29.500
AO-85 30 Sep 06:43:49 06:47:02 24° 249° (WSW) 06:50:09 145.980
GOMX 1 30 Sep 06:45:02 06:49:17 64° 101° (E) 06:53:23 467.674
CUSAT 1 30 Sep 06:46:37 06:53:27 45° 270° (W) 06:58:59 437.405
NOAA 18 30 Sep 06:51:15 06:56:28 45° 100° (E) 07:01:43 137.9125
DOVE 4 30 Sep 06:53:27 06:57:01 28° 97° (E) 07:00:37 437.250
DANDE 30 Sep 06:58:35 07:07:00 90° 268° (W) 07:14:17 436.750
GONETS M04 30 Sep 07:00:51 07:06:14 18° 81° (E) 07:11:35
HO-68 30 Sep 07:02:32 07:03:19 10° 91° (E) 07:04:07 435.675
NOAA 15 30 Sep 07:03:02 07:08:21 83° 284° (WNW) 07:13:37 137.62
LilacSat-2 30 Sep 07:04:08 07:07:59 75° 282° (WNW) 07:11:50 437.200
BRITE-PL 30 Sep 07:09:55 07:13:39 24° 290° (WNW) 07:17:09 437.365/2234.400
CANX-2 30 Sep 07:21:43 07:22:41 11° 92° (E) 07:23:39 2200.000
CUTE-I 30 Sep 07:28:03 07:33:19 58° 286° (WNW) 07:38:34 437.470
Cubesat XI-IV 30 Sep 07:28:46 07:34:02 58° 286° (WNW) 07:39:17 437.490
